星链-37065(STARLINK-37065)

导读

STARLINK-37065(NORAD编号68083)是SpaceX星链(Starlink)星座中的一颗低轨互联网通信卫星,作为星链大规模组网的组成部分,服务于全球卫星互联网覆盖需求。 该卫星运行于近地轨道,属于Starlink第二批次卫星,继承了星链星座的技术设计,采用Ku/Ka频段提供通信服务,部分新款星链卫星搭载星间激光链路,可实现卫星间高速数据传输,减少对地面站的依赖。 2026年SpaceX启动大规模降轨计划,将包括STARLINK-37065在内的约4400颗星链卫星轨道高度从550公里降至480公里,以降低碰撞风险,提升太空运行安全性。

Basic Information
目录编号:
68083
目录名称:
STARLINK-37065
国际标识:
2026-042Q
轨道中心:
EARTH
卫星名称:
星链-37065
卫星全名:
星链-37065(STARLINK-37065)
卫星状态:
在轨 (已飞行193 天)
发射日期:
2026-03-04 UTC
国别 :
美国 (US)
星等 :
--
This satellite is enrolled in the Space Conjunction Data Service (SCDS) and the current flight risk assessment level is: No High Risk
Orbit Information
数据来源 国际轨道数据
星历时间: 2026-09-12T23:53:58+0800
18小时前
查看轨道信息
半长轴: 6840.84km
偏心率: 0.0000969
轨道倾角: 53.159°
近地点辐角 83.609°
升交点赤经 26.561°
平近点角 276.502°
近地点: 462.04km
远地点: 463.366km
周期: 93.848分钟
每日圈数: 15.344004
Detailed Information
固有亮度:
5
最大亮度:
2.5
卫星平台:
Starlink V1.0
覆盖范围:
全球
运营商:
太空探索技术公司
运营商所在国:
美国
制造商(研发单位):
太空探索技术公司
制造商所在国:
美国
使用方式:
暂无
Satellite Introduction
Starlink 计划是 SpaceX 推出的全球卫星互联网项目,通过发射低轨道卫星,为全球尤其是偏远地区提供高速、低延迟的互联网服务。自 2019 年起,Starlink 已部署数千颗卫星,旨在缩小全球数字鸿沟,推动互联网普及。该项目还为军事、航空等行业提供通信支持,带来广泛经济效益。
2D Orbit Map
3D Orbit Map
Orbit Altitude Analysis Chart
Orbit Inclination Analysis Chart
Orbit Comprehensive Analysis Chart
View Comprehensive Chart
Conjunction Data List
Event ID Objects TCA Miss Dist (km) Collision Risk Probability Collision Risk Index (CRI) Action
CDM_260915-082804-943006-808321
2026-09-15T
08:28:51+0000
1.511 km
极远距离
4.007335E-6 低风险 0.47
CDM_260915-183804-943006-808321
2026-09-15T
18:38:29+0000
1.639 km
极远距离
3.119539E-6 低风险 0.45
CDM_260915-100204-943006-808321
2026-09-15T
10:02:38+0000
1.784 km
极远距离
2.443431E-6 低风险 0.43
CDM_260915-170404-943006-808321
2026-09-15T
17:04:41+0000
2.077 km
极远距离
1.658032E-6 低风险 0.39
CDM_260911-094204-650606-808322
NETSAT-1 (46506)
2026-09-11T
09:42:54+0000
2.541 km
极远距离
1.627563E-6 低风险 0.39
CDM_260910-113205-180906-808322
2026-09-10T
11:32:10+0000
2.874 km
极远距离
1.266292E-6 低风险 0.37
Miss Distance Evolution Trend with All Objects
Collision Probability Evolution Trend with All Objects